Theta_e
336 336 336 337 337 337 337 337 337 337 337 337 338 338 338 339 340 340 341 341 341 340 340 340 340 340 339 339 339 339 339 339 338 338 339 338 339 339 338 337 336 335 336 336 336 336 336 337 337 337 337 338 338 338 338 337 337 336 335 335 335 334 334 334 333 333 333 333 333 332 331 329 330 332 333 333 332 331 332 332 332 332 332 332 331
333 333 334 334 335 334 335 335 335 335 335 336 337 338 338 339 339 339 338 338 338 339 339 339 339 339 339 339 340 340 339 339 339 338 337 337 337 338 337 336 336 335 336 336 336 337 337 338 337 337 338 338 338 337 337 337 337 337 336 335 334 334 335 335 334 333 332 332 331 331 330 329 329 331 332 333 332 332 332 332 332 332 332 332 331
332 332 332 332 332 332 332 332 332 332 333 334 335 336 337 337 337 337 337 338 338 338 338 339 338 339 339 339 340 340 340 340 339 338 337 337 337 337 336 336 336 336 336 337 337 338 338 338 338 337 338 338 338 337 337 337 337 337 336 335 334 334 334 334 334 333 332 331 330 330 332 332 331 330 331 332 332 332 332 332 333 332 333 332 331
331 331 331 331 330 330 330 329 329 329 330 331 332 333 334 334 334 336 336 337 337 338 338 338 338 338 339 339 339 340 340 340 339 338 337 337 337 337 337 336 337 337 337 337 337 337 337 337 337 337 337 337 337 337 336 336 336 336 336 335 333 333 333 332 333 333 333 332 330 330 331 332 334 332 329 331 332 332 332 332 332 332 332 333 332
330 329 329 329 328 328 328 328 327 327 328 328 328 330 330 331 332 334 334 335 336 336 337 337 338 338 338 339 338 338 339 338 338 337 337 337 337 337 337 337 337 336 336 336 336 336 335 335 335 335 335 335 336 335 335 334 334 334 335 335 333 332 330 330 331 332 333 333 331 330 331 332 334 332 330 331 331 331 332 332 332 333 333 333 332
329 328 328 328 327 327 327 326 326 325 325 326 326 327 328 328 329 330 332 333 333 334 335 336 336 337 336 336 336 336 336 336 336 335 336 336 336 337 337 336 336 336 336 335 335 335 334 334 334 334 333 333 334 334 332 332 332 332 333 333 331 331 330 330 331 330 332 333 331 331 331 332 332 331 333 335 332 331 332 332 332 333 333 332 331
327 327 327 326 325 325 325 325 325 324 324 325 325 325 325 326 327 327 329 330 331 332 333 334 335 334 333 333 333 333 333 333 333 333 334 334 335 335 335 335 335 335 335 334 334 333 333 333 333 333 333 332 332 332 331 331 332 332 332 332 330 330 330 330 330 330 331 332 332 331 329 329 330 330 333 336 335 333 332 333 333 333 333 332 331
326 325 325 325 325 325 324 324 323 323 323 323 324 324 324 324 324 325 327 327 328 329 330 331 331 331 331 331 330 330 330 330 331 331 332 332 333 333 333 333 333 333 333 333 333 333 333 333 333 332 332 332 331 331 331 332 332 332 332 332 331 331 330 330 330 330 329 330 331 331 329 329 329 329 330 331 333 334 333 332 332 333 332 331 331
324 324 324 324 323 323 323 323 322 322 323 322 323 323 322 322 323 324 324 325 325 326 327 327 328 328 329 328 328 328 328 329 329 329 329 329 330 330 331 331 331 331 332 332 332 333 333 333 332 331 331 331 331 331 331 331 331 332 332 332 331 331 331 330 329 329 329 330 330 330 330 329 329 328 328 328 329 332 333 333 332 331 331 331 331
323 323 322 322 322 322 322 322 321 321 322 322 322 322 322 322 322 323 323 323 323 323 323 324 324 325 325 325 325 326 326 327 327 326 326 326 327 327 327 328 328 329 330 330 331 331 332 332 332 331 331 331 331 331 331 331 331 332 332 333 332 332 331 331 330 330 330 330 330 330 330 329 329 328 328 328 328 329 331 332 332 331 331 331 331
322 321 321 320 320 320 320 320 320 321 321 321 321 320 321 321 321 322 322 321 320 320 320 321 321 321 321 321 322 323 324 324 324 323 323 324 324 324 324 324 325 327 328 328 329 329 329 330 330 331 331 331 331 331 331 332 332 332 332 333 333 332 332 332 332 331 331 330 330 330 330 330 329 328 329 328 328 328 330 331 330 331 332 331 331
320 320 320 319 319 319 319 319 319 320 320 320 320 319 319 320 320 321 321 320 319 319 320 320 320 320 319 318 319 320 320 320 320 320 321 322 322 321 321 322 324 326 326 326 327 327 328 329 329 329 330 330 330 330 330 330 331 332 332 332 333 332 332 332 332 332 331 330 330 329 330 331 330 329 329 329 329 329 329 330 329 330 331 331 331
319 319 319 319 318 318 318 319 319 318 319 319 319 318 318 318 319 321 321 319 318 318 319 319 320 320 319 318 318 318 318 318 318 319 319 319 319 319 320 320 321 323 323 323 323 325 326 327 328 329 329 329 329 329 329 329 329 330 330 331 332 332 332 332 332 332 331 330 330 329 330 331 330 330 330 329 329 329 329 329 328 330 331 330 331
318 318 318 318 318 317 318 318 318 318 318 318 318 318 318 317 318 320 320 318 317 317 318 318 318 318 318 318 318 317 317 317 317 318 318 318 317 317 318 318 319 319 319 320 320 322 323 325 326 326 326 327 328 328 329 329 329 329 329 329 329 330 331 331 331 332 332 331 330 330 330 330 330 330 330 329 328 328 328 328 328 329 330 329 330
318 317 318 317 317 317 317 317 318 318 318 318 317 317 317 316 317 319 318 317 316 316 316 316 316 316 316 317 317 317 315 315 315 316 317 317 316 315 315 316 316 316 317 317 318 319 320 321 322 322 322 324 326 327 328 328 329 329 329 328 328 328 329 330 331 331 331 330 329 329 330 330 330 331 330 329 328 328 329 329 328 330 330 329 329
317 317 317 317 317 317 317 317 318 318 317 316 316 316 316 315 316 317 317 316 315 315 315 315 315 314 314 315 315 314 314 313 313 314 314 315 314 313 313 313 313 314 315 315 316 316 316 317 318 318 319 321 322 324 325 326 327 328 328 328 328 328 328 329 329 330 330 330 329 329 330 329 330 331 330 329 329 329 329 329 328 328 330 331 330
317 318 317 317 317 316 316 317 317 316 316 315 315 315 315 315 316 316 315 314 314 314 314 314 313 313 313 313 313 312 312 312 312 312 311 312 312 312 311 311 311 312 312 313 313 313 313 313 314 315 317 318 319 320 321 321 322 324 324 325 326 327 327 328 328 328 329 329 328 328 329 329 329 330 330 330 330 330 330 329 328 327 329 330 331
317 317 317 316 316 316 316 317 316 315 314 314 314 314 314 314 315 314 314 314 313 313 313 312 312 312 312 312 311 311 311 311 310 310 310 310 310 309 309 309 309 309 309 310 310 310 310 310 311 312 313 315 315 315 316 316 318 319 320 321 322 324 326 327 328 328 328 328 328 328 328 328 329 329 330 330 330 330 330 329 329 328 328 328 328
317 317 317 316 316 316 316 315 314 314 314 314 314 313 314 314 314 314 314 313 312 311 311 311 311 311 311 310 310 310 310 309 309 308 308 308 308 308 308 307 307 307 307 307 307 307 307 307 307 308 310 311 312 311 312 312 314 315 317 318 319 320 322 325 327 327 328 328 328 329 329 329 329 329 330 330 330 330 329 329 329 328 328 327 326
317 318 317 316 316 316 315 314 313 313 313 313 313 313 313 313 313 313 312 312 311 311 310 310 310 309 309 309 309 308 308 308 308 308 308 308 307 307 307 306 306 306 305 305 305 305 305 305 305 306 307 308 308 308 309 310 311 312 313 314 316 317 319 321 324 326 327 328 328 328 329 329 329 329 329 329 330 330 330 329 329 328 327 327 326
318 319 318 315 314 314 313 313 313 312 312 312 312 312 312 312 312 311 311 310 310 310 310 309 309 309 309 308 308 307 307 307 307 307 307 307 307 306 306 305 305 304 304 304 304 304 304 304 304 304 305 306 305 305 307 307 308 309 310 311 313 314 315 317 320 323 325 327 328 328 328 328 328 329 329 329 329 330 330 329 329 328 327 327 327
318 318 316 314 313 313 312 312 312 311 311 311 312 312 311 311 311 310 310 309 309 309 309 308 308 308 308 308 307 307 307 306 306 306 306 306 306 305 305 304 304 304 303 303 303 303 302 302 302 302 303 304 303 303 303 303 303 304 307 308 309 310 312 314 317 320 322 325 327 329 328 328 328 329 329 329 329 329 329 329 329 329 328 327 327
317 315 314 313 312 312 311 312 312 311 311 311 311 311 310 310 309 309 309 308 308 308 308 307 307 307 307 307 307 306 306 306 305 305 305 305 305 305 304 303 303 303 303 302 302 302 301 301 301 301 302 302 301 300 300 300 300 300 302 305 307 308 308 310 313 316 319 322 324 327 328 328 328 328 329 329 329 329 329 328 329 329 328 328 328
314 312 311 311 311 311 310 310 311 310 310 310 310 309 309 309 308 308 308 308 307 307 307 307 306 306 306 306 306 305 305 304 304 304 304 305 305 304 304 303 303 303 303 302 301 301 300 300 300 300 301 301 300 299 299 299 299 298 298 300 303 305 306 308 310 313 316 319 322 325 327 328 328 328 329 329 329 329 329 328 328 328 328 328 328
311 311 310 310 310 310 310 309 310 309 309 309 309 309 309 308 308 308 307 307 307 306 306 306 306 306 306 306 305 305 304 304 303 303 303 304 304 304 303 303 303 303 302 301 301 300 300 300 300 300 300 300 299 298 298 298 298 299 298 299 300 302 303 305 307 310 313 315 319 322 325 327 328 328 328 329 329 329 329 328 329 329 329 328 328
311 311 311 310 310 310 309 309 309 309 309 309 309 308 308 307 307 307 306 306 306 306 306 305 305 305 305 305 305 304 304 303 303 303 302 302 302 302 302 302 302 303 303 301 300 300 300 299 299 299 299 299 298 298 297 297 298 299 299 299 300 301 302 303 304 307 310 312 315 319 323 326 327 328 328 328 329 329 329 329 329 330 329 328 328
310 310 310 309 309 309 308 308 308 308 309 309 308 308 307 307 307 307 307 306 306 305 305 305 305 305 305 305 304 304 304 304 303 303 302 302 301 301 301 301 302 302 302 301 300 300 300 299 299 299 299 298 298 297 296 297 297 298 299 298 299 300 301 302 304 306 308 310 313 315 319 324 326 328 328 328 328 329 329 328 329 330 330 329 328
310 309 309 309 308 308 307 308 308 308 308 308 308 307 307 307 307 307 306 306 305 305 304 304 305 305 304 304 303 303 303 303 303 303 302 302 301 300 300 301 301 301 301 301 300 299 299 299 299 299 298 298 297 296 296 296 297 298 298 298 299 299 300 302 304 306 308 309 311 312 315 320 324 327 328 328 328 328 328 328 328 329 330 329 328
309 309 309 309 308 307 307 307 307 307 308 308 308 307 307 307 307 306 305 305 304 304 304 304 304 304 304 303 302 302 302 302 303 303 303 302 301 300 300 300 300 300 300 300 299 299 299 299 298 298 298 298 297 296 296 296 296 297 298 298 298 299 300 301 303 305 307 308 310 311 313 317 321 324 326 327 328 328 328 327 328 328 330 330 329
309 308 308 308 307 307 307 307 307 307 307 307 307 307 307 306 306 305 305 304 304 304 303 303 303 303 304 303 302 301 301 301 301 302 303 302 301 300 300 300 300 300 299 299 298 298 298 298 298 298 297 297 296 296 296 296 297 297 297 298 298 299 300 301 302 303 305 307 308 310 312 315 318 321 323 325 327 327 328 328 328 328 330 331 330
308 308 308 307 307 307 307 307 307 307 306 306 306 307 307 306 305 304 304 304 303 303 303 303 302 303 303 303 302 301 300 300 300 301 302 302 301 300 299 300 300 299 299 298 298 297 297 297 297 297 297 297 296 296 296 296 297 298 297 297 297 298 299 300 301 301 303 304 305 308 310 313 315 318 320 323 325 326 327 327 328 328 328 330 331
308 308 308 308 306 306 306 306 306 306 306 305 305 306 306 305 304 304 303 303 303 303 302 302 302 302 303 302 302 301 301 300 300 300 301 301 301 299 299 299 299 299 298 298 298 297 297 297 296 296 296 296 296 296 296 296 297 298 298 297 297 297 298 299 299 300 301 301 302 304 307 310 312 314 317 320 324 326 327 327 327 327 327 328 330
308 308 308 307 306 306 306 306 306 306 305 305 305 304 305 305 304 304 303 303 302 302 302 302 301 302 302 301 301 300 300 300 300 300 300 300 299 299 299 299 299 298 298 298 298 297 297 297 296 296 296 295 295 295 295 296 297 297 298 297 296 297 297 298 299 299 299 300 300 300 302 305 308 311 313 315 318 322 326 326 327 326 326 327 328
308 307 306 306 306 306 306 306 306 306 305 305 305 304 304 304 304 303 303 302 302 302 301 301 301 301 301 300 300 300 299 300 300 300 299 299 299 299 299 299 299 298 298 298 297 297 297 297 296 296 296 295 295 295 295 296 296 297 297 297 296 296 296 297 298 298 298 298 299 299 300 301 303 306 309 309 311 314 319 323 326 326 326 327 327
308 307 305 305 306 306 306 306 305 305 305 305 304 303 303 303 303 303 302 302 302 301 301 301 301 301 301 300 300 300 299 299 299 300 300 299 299 299 299 299 299 298 298 297 297 297 297 296 296 296 296 295 295 295 295 295 296 296 297 296 295 296 296 296 297 297 297 298 297 298 299 299 299 302 304 305 306 309 313 317 322 326 326 326 327
307 306 305 305 306 305 305 305 305 305 305 304 303 303 303 302 302 303 302 302 302 301 301 301 301 301 301 301 300 300 299 299 299 299 300 300 299 299 299 299 299 298 298 297 297 297 297 296 296 296 295 295 295 295 295 295 295 296 296 295 295 295 295 295 296 297 297 297 297 297 298 298 298 299 302 304 305 308 311 313 317 323 325 325 325
305 306 305 305 304 304 304 304 304 304 303 303 302 302 302 302 302 302 302 302 302 301 301 301 301 301 301 301 300 300 300 299 298 299 299 299 299 299 299 299 299 299 299 298 297 297 296 296 296 295 295 295 295 295 295 295 295 295 295 295 294 294 294 294 295 296 297 296 296 297 297 297 297 298 301 303 304 306 309 311 314 319 323 324 323
305 305 305 304 303 303 303 303 303 302 302 302 302 302 302 301 301 302 302 302 302 302 301 301 301 301 300 301 301 300 300 299 298 298 298 298 299 299 299 299 299 299 299 299 298 296 295 295 295 295 295 295 295 295 295 295 295 295 295 294 294 294 293 293 294 295 296 296 296 296 296 296 296 298 300 302 303 304 307 310 313 316 321 323 322
305 305 304 303 303 303 302 302 302 302 302 302 302 302 301 301 301 301 302 302 302 301 301 301 301 301 300 300 300 300 300 299 298 298 298 298 298 298 298 299 298 298 299 299 298 296 295 295 295 295 295 295 295 295 295 295 295 295 295 294 294 293 293 293 293 294 295 295 295 296 296 295 296 298 300 301 303 304 306 309 311 315 319 322 322
304 304 303 303 303 302 302 302 302 302 302 302 301 301 301 301 301 300 301 301 301 301 301 301 301 301 300 300 300 300 300 299 298 297 297 297 297 297 297 297 297 297 298 298 298 296 295 295 295 295 295 295 295 295 295 295 295 295 295 295 294 293 293 293 293 293 294 294 294 295 295 296 296 297 299 300 302 304 307 309 311 315 319 322 322
303 303 303 303 303 302 302 302 302 301 301 301 301 301 300 301 300 300 300 300 301 301 301 301 302 301 300 300 300 300 300 299 298 297 297 297 297 297 297 297 297 297 297 297 297 296 295 295 295 294 295 295 295 295 295 295 295 295 295 295 295 294 293 292 292 293 293 293 294 294 294 295 296 297 298 300 301 304 307 309 312 315 318 321 322
303 302 302 302 302 302 301 301 301 301 301 301 301 300 300 300 300 300 300 299 299 300 300 300 301 301 301 300 300 300 299 299 298 298 298 298 297 297 297 297 297 297 297 297 297 296 296 295 295 295 294 294 294 294 295 295 295 295 295 295 295 294 294 293 292 292 292 292 293 293 294 294 295 296 298 299 300 302 305 308 312 316 318 321 321
302 302 302 302 302 301 301 301 301 301 301 301 301 300 300 300 300 300 299 299 299 299 299 299 300 301 301 300 300 300 300 299 298 298 298 298 298 298 297 297 297 297 297 296 296 295 295 295 295 295 295 294 294 294 295 295 295 295 295 295 295 294 294 294 293 292 292 292 292 293 294 294 295 296 297 298 299 301 301 304 310 315 317 319 319
302 302 302 302 301 301 301 301 301 301 301 301 300 300 300 300 300 299 299 299 299 299 299 299 299 300 301 300 300 300 300 299 299 299 298 298 298 298 297 297 297 297 297 296 295 295 294 294 294 294 294 294 294 294 295 295 295 295 295 295 295 294 294 294 294 293 292 292 292 292 294 295 295 295 296 297 298 299 299 301 305 308 310 312 313
302 302 302 302 302 302 301 301 301 301 301 301 300 300 300 300 300 299 299 299 299 299 299 299 299 300 301 301 300 300 300 300 299 299 299 298 298 298 298 297 297 297 297 296 295 294 294 294 294 294 294 294 294 294 294 294 295 295 295 295 295 294 294 294 294 293 292 292 292 293 294 296 296 296 296 295 296 297 298 299 301 303 304 305 306
302 302 302 302 302 301 301 301 301 301 301 301 300 300 300 300 300 299 299 299 299 299 299 299 299 299 300 300 300 300 300 300 299 299 299 299 298 298 298 297 297 297 296 296 295 294 294 294 294 294 294 294 294 294 294 294 294 295 295 295 294 294 294 294 294 294 293 293 293 293 294 295 296 296 296 295 295 295 297 298 299 299 300 300 301
302 302 302 302 302 301 301 301 301 301 301 301 300 300 300 299 300 299 299 299 299 299 299 299 299 299 299 299 299 299 299 300 299 299 299 299 299 299 298 298 297 297 296 296 295 294 294 294 294 294 294 294 293 294 294 294 294 295 295 295 294 294 294 294 294 293 293 292 292 292 293 294 295 297 297 297 296 295 295 296 296 297 298 298 298
302 302 302 302 301 301 302 301 301 301 301 301 300 300 300 300 299 299 299 299 299 299 299 299 299 299 299 298 298 298 299 299 299 299 299 299 299 298 298 298 297 297 296 296 295 295 295 294 294 294 294 294 293 293 293 293 294 295 295 295 295 294 294 294 293 293 292 292 292 292 292 293 294 294 295 295 295 295 295 295 295 295 296 297 297
302 302 302 301 301 302 302 301 301 301 301 301 300 300 300 300 300 299 298 298 299 299 299 299 299 299 299 298 298 298 298 298 298 298 299 299 298 298 298 298 298 297 297 296 296 295 295 294 294 294 293 293 293 293 293 293 294 295 295 295 295 294 294 294 293 293 292 292 292 292 291 291 291 291 291 292 292 293 293 294 294 295 295 295 296
302 302 301 301 301 302 302 301 301 301 301 301 300 300 300 300 300 300 298 298 298 299 298 299 299 299 299 298 297 298 298 298 297 298 298 298 297 297 297 297 297 297 297 296 295 295 295 294 294 294 294 293 293 293 293 293 294 295 295 295 295 295 294 294 293 293 292 291 291 291 291 290 290 290 290 290 290 291 291 292 292 293 294 294 294
301 301 301 301 301 302 302 301 301 301 301 301 300 300 300 300 300 300 299 298 297 297 296 297 299 299 298 298 298 298 298 298 297 297 297 297 297 297 296 296 296 297 298 297 296 295 294 294 294 294 294 293 293 292 292 293 294 294 295 295 295 294 294 294 293 292 291 291 290 291 291 290 290 290 290 290 290 290 290 291 291 292 292 292 293
Wind_Speed
13 18 18 19 18 18 18 19 19 17 15 13 11 10 10 10 10 12 12 9 7 6 5 4 4 5 6 7 9 9 8 8 9 10 10 10 10 10 11 12 12 13 13 14 16 17 18 19 20 20 20 21 23 23 23 23 22 22 22 22 21 21 23 22 20 18 15 15 16 14 15 16 17 20 19 18 19 20 19 20 24 23 20 20 19
14 17 19 22 21 21 22 21 22 21 20 19 18 16 14 12 14 15 13 11 9 7 6 5 4 3 4 5 5 7 7 6 7 8 10 10 10 10 10 10 10 10 12 14 16 18 19 19 20 20 21 22 21 21 21 21 22 22 23 23 21 20 22 23 21 17 13 13 10 7 8 12 16 19 21 20 20 22 20 20 23 23 22 22 20
11 12 15 19 20 22 23 23 23 23 22 22 21 21 19 18 18 18 15 13 11 9 7 6 4 3 3 3 2 3 4 3 4 5 7 8 9 10 10 10 10 10 11 14 16 17 19 21 22 23 23 23 21 20 21 22 23 24 23 22 20 20 22 23 21 19 17 13 6 3 3 5 10 15 21 24 23 23 23 22 22 23 23 22 21
9 10 12 16 19 20 22 22 22 24 24 23 22 22 22 21 20 19 17 15 12 9 8 6 5 4 3 2 1 2 1 2 3 4 5 6 7 8 9 10 10 11 12 14 16 16 18 21 23 24 24 24 24 24 25 25 25 26 25 23 21 20 21 23 22 23 23 15 5 1 1 1 4 8 14 23 26 24 25 25 24 23 24 24 23
9 10 9 13 17 18 20 21 22 24 24 23 23 22 21 20 19 17 16 15 13 10 9 8 7 7 6 5 4 4 3 4 6 7 7 7 7 7 9 8 8 9 11 13 13 13 16 20 22 23 23 24 26 26 25 26 26 27 27 25 24 22 22 24 23 23 26 25 16 6 1 1 3 3 5 13 22 26 26 26 25 24 25 26 25
8 10 10 12 16 17 19 21 22 23 22 21 21 20 20 19 18 16 15 14 13 11 10 10 10 11 11 12 12 11 11 10 10 10 10 10 9 9 9 9 9 9 10 11 12 12 14 17 20 22 22 22 25 26 25 25 26 27 27 25 24 24 25 24 24 25 26 29 28 20 14 9 3 3 3 3 10 20 25 26 25 25 25 25 25
8 10 10 12 15 17 18 19 20 21 21 21 20 20 19 18 16 16 15 14 13 11 11 11 12 13 14 15 14 14 13 13 13 12 11 11 11 11 11 12 13 12 11 11 12 12 12 14 16 17 19 20 23 25 23 23 25 26 27 25 24 26 26 24 26 27 23 25 31 27 23 19 10 6 5 2 2 8 16 23 25 25 24 24 25
8 8 8 11 15 16 17 18 19 19 20 21 21 20 19 17 15 13 13 13 13 12 12 13 13 13 14 14 14 14 13 13 13 12 11 11 11 12 12 13 14 14 13 13 14 13 12 13 13 15 17 19 21 22 23 24 25 25 26 26 24 23 24 26 28 26 22 24 28 27 25 24 19 12 8 5 2 1 7 14 20 24 26 26 26
8 8 9 12 14 16 17 17 18 18 18 18 19 18 17 16 15 13 13 13 13 13 13 14 13 13 13 13 13 14 13 13 13 12 12 13 13 13 13 14 13 13 13 14 15 15 15 15 14 15 17 18 18 19 20 21 22 23 24 24 22 21 23 26 28 27 27 27 26 25 24 24 23 21 16 10 5 4 3 4 11 16 19 26 29
8 10 11 13 15 16 17 18 19 18 17 17 17 16 14 14 14 15 15 15 15 15 15 16 14 13 13 13 13 13 13 12 12 13 14 15 15 15 15 15 15 14 13 14 15 15 15 15 14 15 15 16 16 17 18 20 20 21 22 22 21 20 21 22 24 26 28 30 28 24 21 19 18 16 16 14 10 8 6 4 8 11 11 20 29
7 9 12 14 15 17 19 20 21 19 16 16 16 16 14 12 12 14 15 16 16 16 17 19 19 18 18 17 15 13 12 12 13 15 16 16 17 17 16 16 16 15 15 16 16 16 17 16 16 15 15 15 16 17 18 19 19 19 20 21 21 21 20 21 23 25 25 28 28 25 24 23 19 16 18 19 14 9 7 5 9 15 14 17 24
7 7 9 11 13 15 18 20 20 18 15 13 14 16 16 15 13 14 14 16 18 18 18 18 19 19 20 20 18 16 14 13 15 16 16 17 18 17 17 17 17 15 15 17 17 17 18 18 18 18 17 17 17 18 18 18 19 20 20 21 21 21 21 22 23 23 24 27 27 27 28 28 27 25 24 23 21 17 11 5 7 13 12 15 21
8 7 7 8 10 12 16 18 19 16 12 11 12 14 15 17 17 16 16 17 20 21 20 19 19 18 19 20 20 19 18 17 17 17 17 17 17 18 18 19 18 16 16 18 18 18 19 19 20 19 18 18 19 20 19 18 18 19 20 21 22 22 22 22 23 24 23 24 27 28 29 27 27 27 25 23 24 22 15 8 8 11 9 11 17
7 7 6 6 9 11 13 16 17 13 9 9 12 12 14 18 19 17 17 19 21 22 22 22 22 20 20 19 18 19 20 20 19 18 17 17 18 18 18 18 18 18 18 19 19 18 18 18 18 19 19 19 19 20 20 19 18 18 19 20 21 23 22 22 23 24 25 24 25 27 28 27 27 27 25 22 23 23 20 14 10 9 7 8 11
7 7 7 8 11 11 11 15 16 11 8 10 14 14 15 18 20 20 20 21 22 23 23 23 23 22 21 21 19 19 20 20 19 18 16 17 18 18 18 18 18 18 18 18 19 19 19 18 18 19 19 19 20 20 21 21 20 19 20 21 21 21 20 21 21 23 25 25 25 26 27 27 29 29 27 23 24 25 25 24 16 8 5 5 6
6 7 7 9 11 12 12 14 14 12 12 15 18 18 17 19 21 22 22 22 23 23 23 24 24 23 23 22 22 21 21 21 20 19 18 18 19 19 18 18 17 17 17 18 19 19 20 19 18 19 19 20 21 21 22 22 22 21 23 23 23 22 20 20 21 21 22 23 24 26 26 27 29 30 27 25 27 28 27 26 21 13 7 4 3
5 5 6 8 10 12 12 13 14 17 18 19 20 19 19 20 22 23 23 23 23 23 23 24 24 24 24 23 23 22 22 22 21 21 20 19 20 20 19 19 18 18 18 18 19 19 20 20 20 19 18 21 22 21 22 23 21 21 22 23 24 23 21 21 20 20 21 21 22 25 26 27 29 28 28 28 29 30 28 25 22 20 14 6 4
5 5 6 8 10 10 9 11 15 19 20 20 19 19 20 21 22 23 23 24 25 24 24 24 24 25 24 24 24 23 22 22 22 21 21 21 21 21 21 21 20 20 20 19 19 20 20 21 21 20 19 20 22 21 23 25 24 23 22 22 23 23 22 21 20 20 20 20 21 24 26 28 29 28 28 30 31 31 29 27 24 25 23 15 8
4 4 4 6 8 9 11 14 18 19 19 19 19 19 20 21 22 23 24 24 25 25 25 25 25 25 25 24 24 23 23 23 22 22 22 23 23 22 22 22 22 22 22 22 21 21 21 22 22 23 21 20 21 23 26 27 27 26 25 24 24 23 22 22 21 21 21 20 20 22 25 27 28 28 28 28 30 30 31 29 26 27 28 24 18
4 4 3 6 10 13 15 18 18 18 17 17 18 19 20 20 21 24 25 25 25 25 25 25 25 25 25 25 24 23 23 23 23 23 23 23 23 22 23 23 23 24 24 24 24 23 23 23 23 25 25 22 23 27 28 29 29 29 29 28 26 25 24 23 22 22 22 20 20 21 23 26 27 27 28 28 28 30 32 31 29 29 28 26 26
4 3 4 8 14 17 18 19 18 18 17 17 17 19 21 22 24 25 25 25 25 25 25 24 24 24 24 24 24 24 23 23 23 23 22 22 22 22 23 23 23 24 25 25 25 24 24 23 23 25 26 23 26 31 32 33 34 33 32 30 29 28 27 25 23 22 22 21 20 21 22 25 27 27 28 29 29 30 31 30 29 29 28 29 28
3 3 6 10 14 17 19 19 18 18 19 19 19 21 24 26 26 25 24 24 24 24 25 24 24 24 23 22 22 23 23 23 23 23 23 22 21 22 23 23 23 24 24 25 25 24 24 23 23 24 24 24 29 33 33 35 36 35 34 33 31 30 29 27 26 24 23 22 22 21 21 23 26 28 29 29 29 31 30 30 30 29 29 31 30
3 5 8 11 14 17 19 18 17 17 19 21 22 24 26 26 25 24 23 23 23 24 24 25 25 25 25 24 23 23 23 23 23 23 23 22 21 21 23 24 24 23 24 26 25 25 25 23 23 24 23 24 30 33 33 36 37 35 34 33 31 31 30 28 27 26 25 23 22 22 23 22 23 26 29 30 30 30 30 30 31 31 30 30 31
5 7 10 13 16 18 19 19 17 17 18 20 22 24 25 24 23 23 23 23 23 24 24 25 25 25 24 24 24 24 24 25 24 23 22 22 21 21 22 24 24 24 25 26 27 26 25 23 22 24 22 23 28 32 35 39 40 37 33 33 32 31 30 29 27 26 25 24 23 23 24 24 22 24 26 29 29 29 29 29 30 31 31 30 31
7 8 10 13 15 15 16 18 17 17 18 21 23 23 22 22 21 22 23 23 24 24 24 24 24 24 23 23 23 24 25 25 25 25 24 24 23 21 22 23 24 24 24 26 27 26 26 24 22 22 22 24 28 31 35 38 40 39 36 34 33 31 30 29 28 26 25 25 24 23 24 25 23 22 24 26 28 29 29 29 29 30 30 30 30
8 8 9 10 11 12 15 17 17 18 19 21 22 21 20 20 21 22 23 23 24 24 24 24 24 24 24 24 23 23 24 24 25 26 26 26 26 24 23 23 24 23 23 25 27 26 25 24 22 22 23 26 29 31 33 37 39 41 41 37 33 32 31 30 28 27 26 26 25 24 23 24 24 24 24 26 28 29 30 29 28 29 30 30 29
8 8 8 8 10 12 15 17 18 19 20 21 21 19 19 19 20 20 21 22 23 23 23 23 23 24 25 25 25 23 23 23 23 25 25 26 27 26 25 24 24 23 22 23 26 25 25 24 24 24 25 26 30 32 35 39 40 41 42 39 34 31 31 30 29 29 28 27 26 25 23 23 25 25 26 27 28 28 29 29 29 29 29 29 29
8 8 8 8 9 11 14 16 17 18 18 19 19 18 18 19 19 20 21 22 23 23 22 23 23 24 25 26 26 25 24 23 22 22 23 25 26 27 27 26 25 24 23 23 25 25 24 25 25 25 25 26 31 34 36 39 41 41 40 38 34 31 30 31 31 31 30 28 27 26 24 23 24 25 26 27 28 28 28 29 29 29 29 29 28
9 8 8 8 8 10 13 15 15 15 15 15 16 16 16 17 18 20 22 23 23 23 24 24 25 25 24 25 27 28 27 25 23 22 21 23 25 26 26 26 26 25 24 24 24 25 25 26 26 26 26 27 31 35 36 38 40 40 39 37 35 33 30 30 32 33 32 31 29 28 26 24 24 25 26 28 29 30 30 30 30 30 30 29 27
9 9 8 7 9 11 13 13 13 14 15 15 15 15 15 16 18 22 24 24 25 25 25 26 27 27 25 25 28 29 28 28 26 24 21 21 24 26 26 26 25 25 25 26 26 26 27 27 27 27 27 28 31 36 38 39 39 38 38 37 36 34 31 29 31 31 31 30 29 29 28 26 25 25 26 28 30 31 31 32 32 31 30 30 28
9 9 8 7 9 12 13 13 14 15 16 18 18 17 16 18 21 24 25 25 25 26 27 27 28 27 25 25 26 27 28 28 28 26 23 21 23 26 26 26 25 25 25 26 28 28 29 29 28 28 28 28 31 37 40 40 39 38 36 35 35 34 32 30 31 30 29 29 29 28 27 26 26 26 27 29 30 31 32 33 34 34 33 32 31
9 9 8 7 8 11 12 12 14 16 17 19 20 20 19 19 23 25 26 25 25 26 27 27 27 27 26 25 24 24 25 26 27 27 25 22 23 25 27 26 25 25 25 26 27 28 29 29 29 29 30 29 31 37 40 40 40 38 36 33 33 34 33 30 30 31 30 31 31 30 28 27 26 25 26 28 30 33 34 34 35 36 37 36 35
10 9 8 8 10 12 12 13 15 17 18 18 19 21 21 21 23 25 26 26 26 26 26 26 26 26 25 24 23 23 23 23 24 25 25 24 24 25 26 26 26 26 27 27 28 28 29 30 30 31 31 30 32 37 40 40 41 40 37 34 32 34 33 29 28 30 31 32 32 30 29 30 29 27 27 26 27 30 33 34 35 35 37 39 39
9 9 9 10 12 12 11 13 17 18 18 17 17 19 21 22 24 25 26 26 25 24 24 24 24 23 23 22 22 23 23 22 22 23 24 24 25 25 25 25 25 26 27 28 28 28 29 29 30 31 31 31 33 37 39 40 41 41 39 35 32 33 33 31 29 30 31 32 32 29 28 31 32 32 30 29 28 27 28 30 33 35 36 38 41
8 8 10 12 12 10 10 14 18 18 17 17 19 20 22 23 23 24 26 25 24 23 23 22 22 21 21 21 22 23 23 23 22 21 21 22 23 23 24 24 25 26 27 27 27 28 28 29 30 30 31 32 33 36 40 41 41 42 41 38 34 33 33 33 32 31 31 33 33 30 29 30 32 34 34 32 30 28 27 27 29 33 35 37 39
10 10 11 12 12 12 13 15 17 17 17 18 21 23 23 22 21 23 25 23 22 22 22 20 20 20 19 20 20 21 22 23 23 21 20 20 20 21 22 24 24 25 26 28 28 27 28 29 30 31 32 33 34 36 39 41 42 43 42 39 36 34 35 34 32 31 34 35 34 32 30 30 33 36 36 33 31 28 28 28 26 29 34 34 35
15 15 13 13 15 17 20 20 20 21 21 21 21 22 21 19 19 21 23 22 21 21 20 19 18 19 19 18 18 20 22 23 23 22 21 20 19 19 20 22 23 24 25 27 28 28 28 29 31 31 31 33 35 37 39 41 42 43 42 40 37 34 35 35 32 31 34 35 34 32 31 31 35 38 37 35 32 29 28 28 26 26 29 29 29
17 15 14 18 22 24 24 24 24 24 23 22 21 20 20 20 19 20 21 20 20 19 18 18 18 19 19 18 16 17 21 23 23 22 22 21 20 19 18 19 21 22 23 25 27 28 28 29 30 31 31 32 34 37 39 40 42 43 41 40 37 34 35 37 35 32 33 34 35 34 32 32 36 37 36 35 33 30 28 27 25 26 25 24 26
16 16 19 23 25 24 24 24 23 22 21 20 19 19 19 20 20 20 19 19 18 18 16 16 17 19 19 18 16 17 19 23 24 23 22 22 21 21 19 19 20 20 20 21 25 28 29 29 29 30 31 32 33 36 38 39 41 42 41 40 38 35 35 37 36 33 32 35 37 37 36 35 37 36 34 34 33 29 28 26 24 23 23 24 27
16 19 23 24 24 23 21 20 20 20 19 17 17 18 18 18 18 18 16 16 16 14 13 13 15 18 18 17 16 17 18 21 23 23 23 23 22 22 21 21 21 20 20 20 23 26 28 29 29 30 31 32 33 34 37 38 39 40 41 41 39 36 35 36 35 31 31 35 37 38 39 38 38 36 34 34 33 30 27 25 22 21 24 27 28
19 22 24 23 22 21 20 19 20 20 17 16 16 18 19 18 17 17 18 18 16 13 11 10 11 16 18 16 16 17 18 19 21 22 21 21 22 22 22 22 23 23 23 23 23 25 27 28 29 29 31 33 34 34 36 38 38 38 40 41 40 38 36 35 34 30 29 33 35 37 38 39 38 36 34 35 34 30 25 22 22 24 25 29 30
20 22 24 24 22 20 20 20 19 16 15 15 17 18 19 18 17 17 17 18 18 16 12 9 9 12 16 16 15 15 17 18 19 20 20 20 21 22 22 23 23 24 25 24 24 25 26 28 29 29 30 32 35 36 36 37 37 36 37 39 39 39 38 36 34 31 30 31 33 35 36 37 38 36 34 36 35 30 25 19 20 25 25 27 29
20 23 24 24 22 20 19 18 16 16 17 16 16 17 19 19 17 15 14 15 17 17 15 13 11 12 14 15 14 14 15 16 17 18 19 19 19 21 22 22 23 24 24 24 25 26 27 28 29 30 30 31 34 36 35 36 37 35 36 38 39 39 39 36 33 32 31 32 33 34 34 35 37 36 35 36 36 34 31 22 9 15 20 25 27
22 25 26 25 22 20 19 18 18 19 19 17 15 16 18 19 17 14 13 14 16 17 18 17 14 12 14 14 13 12 13 14 15 16 17 18 18 19 20 21 22 23 23 24 25 26 27 28 28 29 30 31 32 34 34 36 36 34 35 37 38 39 39 37 34 32 32 32 33 33 32 33 36 37 36 37 38 38 38 32 19 9 7 14 21
25 27 26 24 22 21 20 19 18 18 17 15 15 16 18 19 16 14 13 15 16 18 20 21 18 14 13 12 11 11 11 13 13 14 15 15 16 17 18 19 20 21 21 22 24 26 27 27 28 28 29 30 32 34 35 36 37 34 33 36 38 38 38 36 34 33 32 32 32 32 32 32 35 38 39 39 40 40 40 38 33 27 22 16 13
26 26 25 24 22 20 18 18 17 16 16 16 15 15 17 19 17 14 14 15 17 19 21 21 20 17 14 12 10 10 10 11 12 12 12 13 14 15 15 16 18 19 19 20 22 25 26 27 28 28 28 30 32 34 35 37 37 35 33 34 36 37 38 36 34 33 33 33 33 33 34 34 34 36 38 40 41 41 42 43 41 38 35 29 21
25 25 25 24 21 19 16 15 15 14 15 16 16 15 15 16 16 15 13 14 16 18 18 18 18 18 16 14 13 12 10 10 10 10 10 11 12 13 13 14 15 17 18 19 21 23 25 26 27 27 27 29 31 33 35 37 37 34 33 33 34 35 37 37 35 34 34 34 34 35 35 36 36 35 35 38 40 42 43 44 43 42 41 38 32
26 26 25 23 21 19 18 16 15 15 15 17 17 15 14 13 13 14 13 13 14 14 15 15 14 14 14 14 14 13 12 11 10 9 9 10 11 12 11 11 13 15 16 18 19 21 22 24 25 25 26 28 30 32 34 35 33 31 30 31 31 33 35 35 34 34 34 35 36 37 38 39 39 38 38 38 39 40 41 42 42 42 42 41 38
27 25 24 22 20 20 19 18 18 18 17 17 17 16 14 12 12 12 13 13 14 13 14 14 13 12 11 12 14 13 13 12 11 9 8 8 10 11 10 10 10 12 14 16 17 19 20 22 23 23 24 26 29 31 31 30 28 26 27 27 28 29 31 32 32 33 33 35 36 37 38 38 37 36 37 37 37 37 37 39 39 39 40 40 39
27 25 23 22 21 19 19 19 18 17 15 14 16 16 14 12 11 10 11 13 13 13 13 13 14 13 12 12 14 15 13 12 11 9 8 9 9 10 10 10 9 10 11 14 16 17 18 19 20 20 21 23 26 27 27 26 25 24 25 25 25 26 27 29 32 34 34 34 34 33 34 34 33 32 32 32 33 34 34 35 36 36 36 36 36
27 26 24 23 21 20 20 19 17 15 14 14 16 16 14 12 11 10 11 13 13 12 11 11 13 14 13 12 13 14 13 11 10 10 10 10 10 10 10 10 10 9 9 11 14 16 16 16 17 18 20 23 26 26 25 23 23 25 25 24 24 25 26 27 29 32 33 32 31 29 30 31 31 30 30 30 30 31 32 32 32 34 35 34 33
Wind_Direction
84 80 81 89 92 87 83 83 83 81 81 89 100 101 102 105 101 100 101 107 117 121 131 146 167 183 201 207 215 235 249 261 273 275 280 284 281 281 284 284 283 280 276 273 272 274 275 274 273 271 268 268 268 270 272 273 274 272 271 269 264 258 253 251 251 250 251 253 256 257 248 242 243 238 230 231 230 226 228 224 223 228 227 225 227
80 76 75 79 82 81 78 77 76 73 71 75 78 80 84 87 87 90 92 95 95 94 101 101 98 124 150 174 206 224 234 255 275 279 283 286 284 284 286 286 285 281 277 275 276 277 279 279 278 276 274 274 274 272 272 273 275 276 274 271 267 261 257 254 249 242 238 241 248 266 271 264 259 248 237 236 232 225 225 222 219 222 226 226 224
82 79 76 77 77 78 76 72 71 70 67 69 70 72 76 76 78 82 82 83 84 84 89 85 80 105 135 143 182 221 231 258 287 289 287 290 293 296 297 296 294 290 281 273 272 276 281 282 282 281 280 282 283 279 277 277 277 278 275 271 268 260 256 253 246 241 236 233 238 263 269 266 259 249 240 238 235 228 226 222 216 219 225 226 223
92 87 82 80 76 74 74 71 69 69 66 64 65 66 68 68 72 77 76 77 79 82 88 89 94 107 121 136 197 228 259 305 323 332 320 308 305 306 309 308 302 294 282 273 273 279 282 280 280 281 281 284 285 282 281 281 280 281 278 272 266 259 258 257 251 244 236 227 213 239 226 191 243 238 233 236 235 230 229 226 221 221 224 223 224
92 90 87 84 80 75 75 74 70 68 65 63 63 65 67 66 69 74 74 74 75 79 86 92 97 98 98 91 79 73 51 15 1 3 357 340 328 323 322 316 304 295 287 283 286 286 283 283 285 287 288 288 288 287 287 286 285 282 278 272 262 254 255 259 257 248 239 232 221 211 194 197 248 225 219 238 232 227 229 227 222 222 224 223 225
88 87 87 84 84 79 74 73 71 69 67 67 65 64 65 64 63 67 69 67 67 71 79 89 90 84 82 74 65 62 52 38 30 24 20 14 6 356 348 340 333 321 306 303 306 298 288 287 289 291 295 294 293 293 288 284 286 281 273 270 265 257 250 250 254 249 243 237 228 224 222 215 214 193 185 251 231 225 227 226 223 221 223 224 225
89 84 82 82 81 78 73 71 72 70 68 69 66 60 58 56 55 57 61 62 62 65 71 83 85 78 75 71 66 61 51 42 42 41 37 32 31 29 25 21 13 360 339 327 329 325 312 304 299 295 297 297 298 297 286 278 285 286 279 276 274 263 248 240 246 248 242 235 229 225 223 219 215 205 191 184 224 227 225 224 224 222 221 224 223
96 89 83 81 80 80 77 73 72 71 69 67 64 60 54 49 49 51 57 60 60 62 65 70 74 72 69 67 65 62 53 46 43 42 39 35 35 35 34 36 35 27 12 355 349 347 342 335 326 311 303 302 302 299 291 285 288 291 288 284 278 268 256 244 242 241 237 234 229 223 222 219 217 222 223 209 169 212 222 222 226 225 224 225 222
98 98 91 84 83 83 84 80 74 72 69 66 65 66 60 53 53 58 62 62 58 60 61 61 61 60 57 55 55 55 51 46 41 36 33 31 31 30 29 29 32 34 28 15 4 358 353 348 343 330 317 314 310 303 297 294 293 293 291 287 281 275 271 259 247 240 237 237 233 226 225 221 220 230 237 234 226 227 222 215 217 218 225 229 225
98 98 93 89 89 87 86 82 75 72 68 65 68 70 66 61 62 66 67 64 62 63 66 65 61 55 52 48 45 43 39 35 32 29 26 26 26 25 22 20 20 24 25 21 15 9 2 353 348 344 335 329 322 314 307 302 299 298 297 294 290 287 284 273 261 255 246 238 232 224 219 215 215 226 231 226 227 232 232 222 205 200 213 228 226
99 95 91 89 88 85 84 80 75 74 70 67 69 68 68 68 69 72 71 66 64 67 71 70 67 63 59 54 49 44 39 33 30 27 24 25 25 21 16 12 12 14 13 14 14 12 8 2 357 353 349 344 337 329 320 311 307 305 302 300 298 297 295 287 276 270 257 241 232 225 219 214 209 213 218 215 213 218 222 223 209 207 213 223 226
97 94 91 84 80 78 79 79 77 75 73 70 67 65 69 71 72 80 80 70 66 68 72 70 68 68 65 60 59 55 49 44 38 32 29 27 24 19 15 12 10 5 2 6 8 7 6 5 3 1 357 353 348 342 332 323 315 308 304 302 300 298 295 291 285 279 264 245 235 229 226 222 217 219 222 217 215 216 216 223 208 204 214 226 228
101 98 93 83 78 74 77 82 81 79 83 78 62 60 67 69 73 85 84 74 70 72 73 72 72 73 67 61 60 59 55 51 46 41 38 33 28 24 21 18 15 8 3 5 5 3 3 2 2 2 359 355 352 347 342 335 325 314 309 304 301 299 295 291 288 283 272 253 240 234 229 227 226 228 229 222 220 221 220 230 216 198 206 224 223
103 100 96 88 82 79 83 87 85 86 93 75 53 56 68 68 74 87 86 77 75 74 74 74 75 72 67 62 62 60 55 52 49 45 43 39 34 31 26 23 21 15 10 7 5 5 4 4 3 2 1 359 355 350 346 342 336 327 319 312 306 302 298 294 290 286 277 261 245 237 232 232 234 235 233 227 223 222 217 217 211 199 216 223 214
103 101 101 98 92 90 90 88 88 92 86 63 58 67 73 69 76 89 88 81 77 75 73 73 73 70 68 67 66 62 57 54 52 49 48 43 36 33 30 27 24 19 14 11 10 9 6 5 5 3 4 5 2 357 352 346 342 335 329 324 318 312 304 299 299 292 279 262 244 237 233 233 236 237 236 231 227 226 221 216 208 193 219 231 211
102 104 107 110 108 106 98 89 89 89 79 71 69 74 76 72 79 88 85 81 78 75 73 71 71 70 69 68 66 64 59 56 54 52 52 49 42 37 32 28 25 21 18 14 13 12 8 5 3 1 5 9 7 2 358 352 345 339 334 330 325 321 315 307 304 297 282 265 248 242 239 236 238 240 238 235 233 232 230 225 215 202 209 219 208
106 112 120 125 126 122 109 94 86 84 82 79 76 76 75 74 82 88 84 80 78 75 73 72 72 70 68 67 65 63 60 56 54 52 52 51 46 41 34 29 27 24 21 18 15 12 7 5 3 2 6 12 9 2 359 358 354 348 341 336 331 325 317 310 306 299 289 277 261 252 246 242 243 242 238 236 235 234 235 232 223 216 220 218 201
113 118 126 132 133 124 108 92 87 88 86 83 80 78 75 76 83 86 81 78 76 74 74 73 72 69 67 66 64 62 61 59 55 52 51 50 46 41 35 31 29 27 23 21 18 13 8 6 7 7 12 17 10 360 358 358 356 355 349 344 342 335 323 312 308 302 294 286 274 260 249 244 246 245 241 239 237 236 237 235 227 221 223 220 208
118 120 121 122 118 102 93 92 89 89 86 83 83 79 76 79 83 82 80 80 78 76 75 72 71 70 68 68 65 63 62 59 56 53 52 51 45 41 37 33 30 28 25 24 22 18 14 12 12 13 19 21 9 358 358 357 355 354 351 348 347 346 335 321 312 306 297 288 278 266 253 247 247 247 244 242 240 239 238 235 231 226 225 224 218
125 117 98 95 98 94 95 96 89 87 86 85 84 77 74 78 81 81 82 82 79 77 76 73 71 71 70 69 66 64 63 60 57 55 54 51 46 42 38 35 32 28 25 25 24 21 18 16 16 17 22 21 6 358 357 354 352 351 349 347 345 345 342 333 321 311 303 293 280 269 260 255 251 248 246 245 243 241 237 233 231 229 227 226 222
120 104 97 100 100 99 101 99 92 88 86 84 82 76 72 76 81 82 81 79 78 76 75 74 73 71 70 70 67 65 64 62 59 57 55 52 47 44 40 37 35 31 28 26 24 22 19 18 18 18 23 19 6 2 1 356 353 349 346 345 343 341 340 336 330 320 311 303 287 271 263 260 257 252 250 247 242 238 235 230 227 226 222 221 221
127 115 113 111 104 102 104 100 93 86 80 79 81 77 74 77 82 82 79 78 77 76 75 75 73 70 69 70 69 66 64 61 59 56 55 53 50 46 42 39 37 34 32 30 27 24 21 21 20 18 20 16 7 6 6 1 356 350 346 344 341 339 337 334 332 326 319 314 299 278 265 262 260 256 253 250 244 238 233 228 224 222 219 220 220
118 100 103 106 100 97 96 93 90 85 78 78 80 79 78 81 84 83 80 79 78 78 77 76 74 70 70 71 69 66 63 60 57 55 53 53 52 47 42 40 40 38 35 32 30 27 24 24 23 19 19 15 9 9 9 5 2 355 348 343 340 337 334 331 328 326 322 319 308 289 274 267 265 260 255 252 248 240 232 226 222 221 220 221 219
87 87 93 96 95 92 90 90 92 85 78 80 82 82 83 86 87 85 84 82 81 80 78 76 75 73 72 72 70 68 64 60 57 55 54 52 51 46 41 40 41 40 37 33 31 30 28 27 24 22 21 15 10 8 8 7 5 360 350 344 340 335 331 328 324 322 321 320 313 298 284 277 271 265 258 252 249 243 234 225 221 220 222 223 221
93 92 94 95 95 95 93 94 93 83 79 85 88 86 86 87 88 88 87 85 83 81 79 78 76 74 73 73 71 68 65 62 58 56 55 52 49 45 41 39 40 41 39 34 32 31 30 30 27 24 22 16 10 8 6 5 4 1 354 346 341 336 331 327 322 319 317 315 313 304 292 284 277 269 262 255 250 246 239 229 223 221 222 223 222
103 97 94 93 92 91 91 91 87 82 87 95 94 89 87 88 91 91 90 88 85 82 81 81 79 76 74 72 71 67 65 63 60 57 56 53 50 46 43 42 42 42 40 35 34 34 33 32 30 26 22 16 11 8 6 4 2 1 358 352 344 339 335 331 325 321 317 311 309 305 297 290 282 273 265 259 253 248 241 232 226 225 225 223 221
107 102 98 94 89 88 90 89 87 88 95 102 101 95 93 96 97 94 92 90 87 83 81 80 78 76 73 70 68 65 63 62 60 58 57 54 50 47 45 45 44 44 42 36 35 37 35 33 29 25 21 16 12 9 7 5 3 1 359 355 349 343 340 338 335 330 324 316 309 304 298 294 288 278 268 261 255 251 246 238 231 228 225 221 219
111 106 102 98 93 90 91 91 93 96 101 106 107 103 101 102 100 95 94 92 87 82 78 74 72 73 73 71 67 64 61 60 59 57 57 54 50 46 46 46 46 46 43 37 35 35 32 29 26 22 19 15 12 10 8 5 3 1 0 358 353 346 342 342 342 341 335 328 319 310 301 296 293 286 275 267 258 252 248 244 239 234 227 221 216
117 113 110 107 101 96 94 95 97 99 100 106 112 113 108 104 101 98 97 93 86 79 74 70 67 70 74 73 67 63 60 58 57 56 56 55 50 46 46 46 46 46 42 37 33 31 28 25 23 20 18 15 12 10 8 6 4 2 1 1 357 352 347 343 342 342 341 337 331 323 311 301 297 293 284 276 267 256 247 243 242 239 231 224 217
122 117 114 110 105 101 99 99 99 97 96 99 110 118 111 101 103 103 98 91 84 78 73 70 67 69 76 76 67 62 59 57 56 57 58 58 51 46 45 45 44 43 39 35 33 32 29 26 24 21 18 15 12 9 7 8 8 5 2 1 359 357 354 350 346 343 341 340 337 331 322 311 304 300 294 286 276 265 254 247 244 241 236 229 221
124 121 119 114 108 103 101 104 105 101 98 97 103 114 112 104 105 104 97 90 86 80 75 72 70 71 77 77 69 63 60 58 58 58 60 60 52 46 44 45 43 41 38 36 34 33 31 27 25 22 18 15 11 8 8 9 10 8 5 2 0 359 357 355 354 351 346 343 340 336 331 323 315 310 304 295 284 273 263 255 250 247 244 237 228
127 124 119 114 114 112 110 112 112 106 102 99 99 106 111 109 107 103 97 92 87 83 78 75 73 75 77 76 71 66 62 60 59 60 60 60 54 48 46 45 44 41 38 36 33 31 28 25 23 21 18 15 11 8 9 9 9 10 8 3 0 0 359 355 352 352 351 348 345 340 336 331 325 317 312 304 292 280 270 263 258 253 250 246 239
125 122 123 129 134 131 122 116 115 111 108 104 102 104 105 106 107 105 99 94 90 86 83 78 77 78 77 75 71 68 66 62 61 60 60 58 55 50 48 46 44 41 38 35 32 29 26 23 21 19 16 14 11 9 9 10 9 9 9 6 2 0 360 355 350 350 352 351 349 345 340 336 332 326 322 319 308 291 278 270 266 261 255 251 248
126 127 137 144 145 139 129 121 118 115 113 107 104 106 103 102 108 109 101 95 93 90 86 82 80 79 77 74 71 69 67 64 62 60 58 56 53 50 49 47 44 41 38 35 32 28 26 23 20 17 15 13 12 10 10 11 9 8 9 8 3 0 360 358 354 352 352 351 351 348 342 338 337 334 330 328 323 310 293 278 268 263 258 252 248
130 136 148 152 153 150 137 129 124 121 117 108 100 103 103 101 107 110 104 97 95 93 89 85 83 81 79 75 71 68 66 63 62 61 57 55 52 49 48 45 42 40 37 35 32 29 26 23 19 16 13 12 12 11 11 12 10 8 8 7 4 1 0 359 357 354 352 352 352 350 345 339 338 338 337 334 329 319 306 292 274 261 257 253 248
138 146 152 153 154 145 131 126 125 121 117 108 100 102 106 104 104 109 109 101 97 96 91 85 84 83 81 78 72 68 65 61 60 60 57 54 50 47 45 41 39 39 37 35 33 30 26 23 19 16 13 12 12 12 12 13 11 9 8 7 4 1 359 358 356 353 353 353 352 350 346 342 339 340 340 338 333 321 307 299 286 265 255 251 248
145 149 144 135 128 121 116 115 114 112 110 108 102 100 104 104 101 107 111 106 101 99 92 85 84 82 80 80 75 70 65 59 57 57 55 51 48 44 41 37 35 34 33 32 31 30 28 24 21 18 14 12 12 13 13 13 13 11 9 7 4 1 358 356 353 351 352 352 352 350 347 345 344 343 342 339 336 327 310 299 291 273 255 246 243
149 145 132 120 115 112 110 109 107 106 106 106 103 98 99 98 96 104 115 114 106 101 93 86 85 83 81 80 77 74 68 60 55 55 54 51 48 44 41 37 33 30 28 27 27 28 29 27 24 22 18 14 13 13 14 15 15 13 10 7 5 0 356 354 351 350 351 352 352 352 351 350 347 346 345 341 337 330 314 297 287 278 259 239 234
148 136 125 118 114 112 110 107 106 106 106 105 104 99 97 98 97 101 113 119 112 102 93 89 88 86 84 81 80 79 71 61 57 57 56 52 50 47 44 41 37 32 28 25 25 27 29 28 27 25 22 18 14 13 15 15 15 15 12 8 6 2 356 353 350 347 348 351 353 353 354 354 351 350 351 345 338 330 314 295 280 272 256 236 230
138 130 124 119 117 115 111 107 107 109 109 109 107 99 94 100 101 95 96 107 114 107 96 93 91 88 86 83 80 79 72 63 60 61 60 57 53 50 47 44 41 36 32 29 27 26 26 26 26 24 23 20 14 11 13 13 13 14 13 10 8 4 357 352 350 346 345 348 352 354 355 355 355 356 358 353 344 333 316 293 269 256 246 237 232
135 131 126 121 119 115 109 110 114 114 114 117 112 97 88 95 101 93 87 91 98 99 98 103 101 92 87 84 82 79 73 66 63 62 62 60 56 53 50 46 42 38 35 32 29 25 23 23 23 22 21 20 16 11 10 11 11 12 14 12 9 6 0 354 350 349 347 346 348 351 354 357 358 360 4 3 354 342 326 297 264 247 242 237 231
137 133 127 123 120 115 111 114 116 117 121 123 112 94 86 90 95 95 92 88 81 78 83 97 110 104 91 84 84 80 74 69 65 61 60 60 58 55 51 47 42 39 37 34 30 24 20 18 19 20 19 19 17 13 11 10 10 11 13 13 11 7 4 359 354 352 350 348 348 350 355 359 2 4 11 12 7 0 351 321 267 245 239 234 225
135 133 132 128 124 120 118 116 114 115 117 117 111 99 90 88 91 97 99 89 76 72 75 82 98 112 101 87 83 80 73 69 65 58 57 58 56 54 50 46 43 39 38 35 30 24 19 16 15 16 17 16 16 15 13 11 10 10 11 12 12 10 7 4 360 355 352 352 352 353 358 5 8 11 16 20 20 19 17 7 306 243 232 220 206
132 132 134 133 130 126 122 117 114 113 112 111 112 107 94 85 89 101 102 90 78 74 74 74 84 108 108 92 83 78 70 65 61 54 54 55 53 51 49 47 44 41 39 36 29 23 19 15 11 10 12 14 14 14 13 12 10 10 11 11 11 10 9 7 5 1 359 358 357 358 4 12 16 17 20 25 28 30 30 31 41 71 140 173 170
128 129 132 130 128 124 119 117 116 115 115 115 115 109 96 87 91 104 104 92 82 76 73 73 79 93 100 92 84 77 68 63 57 50 49 50 48 46 47 47 45 43 40 36 30 24 19 15 10 7 8 12 13 12 11 10 9 10 11 11 10 10 10 9 9 7 6 5 6 8 12 18 21 22 24 27 30 33 36 39 46 56 65 78 107
130 129 129 127 127 126 126 127 127 125 122 118 113 107 98 92 94 104 103 91 83 77 75 75 78 84 87 83 77 71 63 58 52 46 45 45 43 41 43 46 47 44 41 37 30 25 20 15 11 7 9 13 14 11 9 8 8 10 11 10 11 11 11 11 12 12 13 13 14 15 17 20 23 25 27 27 28 33 40 43 45 49 51 48 47
136 135 134 134 136 136 135 135 140 140 131 122 118 114 107 98 93 97 100 93 84 78 73 72 74 79 80 76 71 69 65 58 51 46 43 41 39 38 39 44 47 45 42 38 30 24 20 15 10 9 11 14 13 11 10 8 7 9 10 9 10 12 11 12 14 15 16 16 16 18 21 24 27 28 31 31 30 32 38 40 43 46 48 47 42
141 141 142 142 141 136 128 124 131 137 131 126 124 119 113 107 96 92 96 98 92 83 74 67 66 70 72 69 67 70 71 65 56 47 41 40 41 38 35 40 46 45 41 38 31 25 20 16 12 10 12 13 13 12 11 9 7 9 9 9 10 11 11 14 16 16 17 19 19 20 23 25 27 28 29 31 30 31 34 36 39 44 47 48 46
142 144 146 145 142 136 127 120 121 124 123 126 128 120 114 116 107 91 88 96 97 90 80 70 62 65 70 67 63 67 73 72 63 51 43 45 48 44 36 33 40 43 42 39 33 27 22 19 19 18 16 15 14 11 9 9 9 12 13 12 11 10 11 15 18 20 21 22 21 20 20 21 22 24 25 27 27 29 32 35 38 41 45 48 46
144 147 148 146 144 141 134 127 124 124 125 129 131 124 120 124 119 97 87 94 98 92 82 71 65 71 79 71 61 62 71 73 67 58 53 54 57 54 42 32 31 38 43 41 36 30 25 21 22 23 22 19 14 9 9 12 12 13 16 16 13 11 12 15 18 22 25 24 21 19 18 18 19 21 23 24 26 28 31 33 37 40 43 45 46
146 147 146 146 146 143 138 134 130 125 124 127 129 125 123 127 127 113 99 94 90 85 82 78 76 80 84 74 58 55 60 64 64 62 60 58 60 59 48 35 31 33 39 40 37 34 31 26 23 21 18 16 13 10 13 17 16 14 16 17 14 15 18 18 20 24 26 24 21 18 18 18 19 21 23 24 27 30 32 32 35 39 41 42 44